Weather History for Klamath Falls, OR

Change the Weather History Date:

Sunday, June 30, 2013

  Actual Average Record
Temperature  
Mean Temperature 75 °F 63 °F  
Max Temperature 96 °F 79 °F 96 °F (2013)
Min Temperature 54 °F 46 °F 30 °F (1961)
Degree Days  
Heating Degree Days 0 4  
Month to date heating degree days 178 216  
Since 1 June heating degree days 178 217  
Since 1 July heating degree days 6635 6973  
Cooling Degree Days 10 1  
Month to date cooling degree days 46 11  
Year to date cooling degree days 46 12  
Since 1 June cooling degree days 46 11  
Growing Degree Days 25 (Base 50)    
Moisture  
Dew Point 51 °F    
Average Humidity 48    
Maximum Humidity 83    
Minimum Humidity 14    
Precipitation  
Precipitation 0.00 in 0.05 in 0.20 in (1992)
Month to date precipitation 1.16 1.04  
Year to date precipitation 4.55 8.83  
Sea Level Pressure  
Sea Level Pressure 29.91 in    
Wind  
Wind Speed 7 mph (NW)    
Max Wind Speed 20 mph    
Max Gust Speed 24 mph    
Visibility 10 miles    
Events      
T = Trace of Precipitation, MM = Missing Value Source: NWS Daily Summary

Daily Weather History Graph

Daily Weather History Graph

Search for Another Location

Airport:

Trip Planner

Search our weather history database for the weather conditions in past years. The results will help you decide how hot, cold, wet, or windy it might be!

Date:

Astronomy

Jun. 30, 2013 Rise Set
Actual Time 5:34 AM PDT 8:46 PM PDT
Civil Twilight 4:59 AM PDT 9:21 PM PDT
Nautical Twilight 4:15 AM PDT 10:05 PM PDT
Astronomical Twilight 3:21 AM PDT 10:58 PM PDT
Moon 12:40 AM PDT (6/30) 2:02 PM PDT (6/30)
Length of Visible Light 16h 21m
Length of Day
15h 12m
Last Quarter, 44% of the Moon is Illuminated
Jun 30
Last Quarter
Jul 8
New
Jul 15
First Quarter
Jul 22
Full
Jul 29
Last Quarter

Hourly Weather History & Observations

Time (PDT) Temp. Heat Index Dew Point Humidity Pressure Visibility Wind Dir Wind Speed Gust Speed Precip Events Conditions
12:53 AM 59.0 °F - 51.1 °F 75% 30.00 in 10.0 mi NE 3.5 mph - N/A   Clear
1:53 AM 57.0 °F - 50.0 °F 77% 29.99 in 10.0 mi Calm Calm - N/A   Clear
2:53 AM 61.0 °F - 54.0 °F 78% 29.96 in 10.0 mi North 8.1 mph - N/A   Clear
3:53 AM 59.0 °F - 53.1 °F 81% 29.96 in 10.0 mi North 4.6 mph - N/A   Clear
4:53 AM 55.9 °F - 50.0 °F 80% 29.97 in 10.0 mi North 3.5 mph - N/A   Clear
5:53 AM 55.0 °F - 50.0 °F 83% 29.98 in 10.0 mi North 3.5 mph - N/A   Clear
6:53 AM 63.0 °F - 55.9 °F 78% 29.97 in 10.0 mi NNE 3.5 mph - N/A   Clear
7:53 AM 69.1 °F - 57.0 °F 65% 29.96 in 10.0 mi NNW 9.2 mph - N/A   Clear
8:53 AM 73.0 °F - 55.0 °F 53% 29.96 in 10.0 mi NNW 8.1 mph - N/A   Clear
9:53 AM 75.9 °F - 54.0 °F 46% 29.96 in 10.0 mi NW 6.9 mph - N/A   Clear
10:53 AM 80.1 °F 80.0 °F 54.0 °F 40% 29.94 in 10.0 mi Variable 3.5 mph - N/A   Clear
11:53 AM 84.0 °F 82.9 °F 55.0 °F 37% 29.92 in 10.0 mi Variable 3.5 mph - N/A   Clear
12:53 PM 87.1 °F 85.1 °F 54.0 °F 32% 29.91 in 10.0 mi Variable 4.6 mph - N/A   Clear
1:53 PM 90.0 °F - 48.9 °F 24% 29.90 in 10.0 mi SSW 5.8 mph - N/A   Clear
2:53 PM 93.0 °F - 43.0 °F 18% 29.87 in 10.0 mi West 6.9 mph - N/A   Clear
3:53 PM 93.9 °F - 39.0 °F 15% 29.85 in 10.0 mi WNW 5.8 mph - N/A   Clear
4:53 PM 95.0 °F - 39.9 °F 15% 29.83 in 10.0 mi NNW 4.6 mph - N/A   Clear
5:53 PM 95.0 °F - 42.1 °F 16% 29.81 in 10.0 mi Variable 4.6 mph - N/A   Clear
6:53 PM 91.9 °F - 44.1 °F 19% 29.80 in 10.0 mi NW 18.4 mph - N/A   Clear
7:53 PM 87.1 °F 84.9 °F 53.1 °F 31% 29.81 in 10.0 mi NW 15.0 mph - N/A   Clear
8:53 PM 82.0 °F 81.3 °F 54.0 °F 38% 29.82 in 10.0 mi WNW 10.4 mph - N/A   Clear
9:53 PM 79.0 °F - 54.0 °F 42% 29.85 in 10.0 mi WNW 10.4 mph - N/A   Clear
10:53 PM 75.0 °F - 55.9 °F 51% 29.86 in 10.0 mi WNW 8.1 mph - N/A   Clear
11:53 PM 73.0 °F - 57.9 °F 59% 29.87 in 10.0 mi West 6.9 mph - N/A   Clear